SQ5DCP-1 Weather Reports


time (UTC)temp
C
wind
direction
speed
KPH
gust
KPH
rain 1hr
cm
rain 24hr
cm
rain mn
cm
humidity
%
barometer
mb
20210723161036 24 0.0 0.0 0.00 0.00 0.00 51 1015.5
20210723160535 24 0.0 0.0 0.00 0.00 0.00 51 1015.5
20210723160035 24 0.0 0.0 0.00 0.00 0.00 52 1015.5
20210723155534 23 0.0 0.0 0.00 0.00 0.00 52 1015.5
20210723155104 23 0.0 0.0 0.00 0.00 0.00 52 1015.5
20210723154533 23 248 0.0 1.6 0.00 0.00 0.00 52 1015.6
20210723154033 23 0.0 0.0 0.00 0.00 0.00 52 1015.6
20210723153533 24 270 0.0 6.4 0.00 0.00 0.00 51 1015.6
20210723153032 24 263 0.0 4.8 0.00 0.00 0.00 51 1015.6
20210723152531 24 284 0.0 6.4 0.00 0.00 0.00 50 1015.6
20210723152031 25 225 0.0 1.6 0.00 0.00 0.00 50 1015.6
20210723151530 25 0.0 0.0 0.00 0.00 0.00 52 1015.6
20210723151029 24 0.0 0.0 0.00 0.00 0.00 52 1015.6
20210723150528 24 270 0.0 1.6 0.00 0.00 0.00 53 1015.7
20210723150027 24 0.0 0.0 0.00 0.00 0.00 53 1015.7
20210723145526 24 0.0 4.8 0.00 0.00 0.00 54 1015.7
20210723145026 24 248 0.0 6.4 0.00 0.00 0.00 54 1015.7
20210723144555 24 293 0.0 1.6 0.00 0.00 0.00 54 1015.7
20210723144055 24 268 0.0 6.4 0.00 0.00 0.00 55 1015.7
20210723143524 23 261 0.0 6.4 0.00 0.00 0.00 57 1015.7
20210723143024 23 23 0.0 1.6 0.00 0.00 0.00 56 1015.8
20210723142524 23 289 0.0 4.8 0.00 0.00 0.00 56 1015.8
20210723142023 23 0.0 0.0 0.00 0.00 0.00 56 1015.9
20210723141553 23 338 0.0 1.6 0.00 0.00 0.00 56 1015.9
20210723141022 23 0.0 0.0 0.00 0.00 0.00 56 1015.9
20210723140522 23 0.0 0.0 0.00 0.00 0.00 55 1015.8
20210723140051 23 0.0 0.0 0.00 0.00 0.00 55 1015.8
20210723135551 23 315 0.0 4.8 0.00 0.00 0.00 55 1015.8
20210723135050 23 296 0.0 6.4 0.00 0.00 0.00 55 1015.8
20210723134550 23 285 0.0 1.6 0.00 0.00 0.00 54 1015.8
20210723134049 24 293 0.0 1.6 0.00 0.00 0.00 52 1015.8
20210723133549 24 306 0.0 8.0 0.00 0.00 0.00 52 1015.8
20210723133018 24 0.0 0.0 0.00 0.00 0.00 52 1015.9
20210723132518 24 0.0 0.0 0.00 0.00 0.00 52 1015.9
20210723132248 24 0.0 0.0 0.00 0.00 0.00 51 1015.9
20210723131536 25 274 1.6 4.8 0.00 0.00 0.00 51 1016.0
20210723131036 25 315 0.0 1.6 0.00 0.00 0.00 51 1016.0
20210723130535 26 315 0.0 1.6 0.00 0.00 0.00 52 1016.0
20210723130034 26 270 0.0 4.8 0.00 0.00 0.00 52 1016.0
20210723125934 26 0.0 0.0 0.00 0.00 0.00 54 1016.1
20210723114546 23 0.0 0.0 0.00 0.00 0.00 58 1016.5
20210723114046 23 225 0.0 4.8 0.00 0.00 0.00 58 1016.5
20210723113545 23 0.0 0.0 0.00 0.00 0.00 58 1016.5
20210723113045 23 0.0 0.0 0.00 0.00 0.00 58 1016.6
20210723112544 23 237 1.6 8.0 0.00 0.00 0.00 58 1016.6
20210723112044 23 225 0.0 4.8 0.00 0.00 0.00 58 1016.6
20210723111543 23 0.0 0.0 0.00 0.00 0.00 58 1016.6
20210723111043 23 0.0 0.0 0.00 0.00 0.00 59 1016.6
20210723110542 23 253 0.0 8.0 0.00 0.00 0.00 59 1016.7
20210723110041 23 243 1.6 11.3 0.00 0.00 0.00 59 1016.8
20210723105540 23 275 0.0 8.0 0.00 0.00 0.00 59 1016.8
20210723105039 23 270 0.0 4.8 0.00 0.00 0.00 60 1016.8
20210723104538 23 266 1.6 16.1 0.00 0.00 0.00 60 1016.8
20210723104038 23 239 0.0 11.3 0.00 0.00 0.00 61 1016.9
20210723103537 23 270 0.0 8.0 0.00 0.00 0.00 61 1017.0
20210723103037 23 254 0.0 6.4 0.00 0.00 0.00 62 1017.0
20210723102538 22 218 0.0 6.4 0.00 0.00 0.00 62 1017.1
20210723102035 22 254 0.0 6.4 0.00 0.00 0.00 62 1017.1
20210723101535 22 187 0.0 4.8 0.00 0.00 0.00 62 1017.1
20210723101034 22 0.0 0.0 0.00 0.00 0.00 62 1017.1
20210723100534 22 0.0 0.0 0.00 0.00 0.00 61 1017.1
20210723100033 22 0.0 0.0 0.00 0.00 0.00 62 1017.2
20210723095533 22 245 0.0 4.8 0.00 0.00 0.00 62 1017.2
20210723095032 22 236 0.0 1.6 0.00 0.00 0.00 63 1017.3
20210723094531 22 285 1.6 11.3 0.00 0.00 0.00 63 1017.3
20210723094031 22 275 0.0 6.4 0.00 0.00 0.00 63 1017.3
20210723093530 22 272 0.0 6.4 0.00 0.00 0.00 63 1017.3
20210723093030 22 292 0.0 6.4 0.00 0.00 0.00 64 1017.3
20210723092529 22 231 0.0 4.8 0.00 0.00 0.00 66 1017.4
20210723092029 22 247 1.6 8.0 0.00 0.00 0.00 66 1017.3
20210723091528 21 303 0.0 1.6 0.00 0.00 0.00 66 1017.3
20210723091027 21 264 0.0 4.8 0.00 0.00 0.00 65 1017.3
20210723090527 21 278 0.0 1.6 0.00 0.00 0.00 65 1017.3
20210723090026 21 258 0.0 4.8 0.00 0.00 0.00 65 1017.4
20210723085526 21 297 0.0 1.6 0.00 0.00 0.00 66 1017.4
20210723085025 21 248 0.0 8.0 0.00 0.00 0.00 66 1017.4
20210723084524 21 270 0.0 4.8 0.00 0.00 0.00 67 1017.4
20210723084024 21 0.0 1.6 0.00 0.00 0.00 67 1017.4
20210723083524 21 315 0.0 1.6 0.00 0.00 0.00 68 1017.4
20210723083023 21 263 0.0 4.8 0.00 0.00 0.00 69 1017.5
20210723082552 20 285 3.2 6.4 0.00 0.00 0.00 70 1017.4
20210723082052 20 264 0.0 4.8 0.00 0.00 0.00 70 1017.5
20210723081551 20 261 0.0 4.8 0.00 0.00 0.00 70 1017.4
20210723081021 20 270 1.6 6.4 0.00 0.00 0.00 71 1017.4
20210723080520 20 248 0.0 1.6 0.00 0.00 0.00 71 1017.4
20210723080020 20 0.0 0.0 0.00 0.00 0.00 72 1017.4
20210723075519 20 0.0 0.0 0.00 0.00 0.00 73 1017.4
20210723075019 20 0.0 4.8 0.00 0.00 0.00 74 1017.5
20210723074549 20 293 0.0 1.6 0.00 0.00 0.00 74 1017.5
20210723074048 20 257 0.0 1.6 0.00 0.00 0.00 75 1017.5
20210723073548 19 203 0.0 1.6 0.00 0.00 0.00 76 1017.4
20210723073047 19 253 0.0 6.4 0.00 0.00 0.00 76 1017.5
20210723072547 19 255 3.2 6.4 0.00 0.00 0.00 76 1017.5
20210723072047 19 264 0.0 4.8 0.00 0.00 0.00 76 1017.5
20210723071546 19 248 0.0 4.8 0.00 0.00 0.00 77 1017.4
20210723071146 19 248 1.6 4.8 0.00 0.00 0.00 77 1017.4
20210723070715 19 239 1.6 4.8 0.00 0.00 0.00 77 1017.4
20210723070045 18 240 1.6 4.8 0.00 0.00 0.00 77 1017.4
20210723065544 18 0.0 0.0 0.00 0.00 0.00 77 1017.4
20210723065044 18 0.0 0.0 0.00 0.00 0.00 77 1017.4
20210723064544 18 0.0 0.0 0.00 0.00 0.00 78 1017.4
20210723064113 18 0.0 0.0 0.00 0.00 0.00 78 1017.4
20210723063543 18 0.0 0.0 0.00 0.00 0.00 78 1017.4
20210723063042 18 0.0 0.0 0.00 0.00 0.00 78 1017.4
20210723062542 18 0.0 0.0 0.00 0.00 0.00 79 1017.4
20210723062111 18 0.0 0.0 0.00 0.00 0.00 79 1017.4
20210723061541 18 0.0 0.0 0.00 0.00 0.00 79 1017.4
20210723061141 18 0.0 0.0 0.00 0.00 0.00 79 1017.4
20210723060540 17 0.0 0.0 0.00 0.00 0.00 79 1017.4
20210723060440 17 0.0 0.0 0.00 0.00 0.00 79 1017.4
20210723055539 17 0.0 0.0 0.00 0.00 0.00 79 1017.4
20210723055109 17 0.0 0.0 0.00 0.00 0.00 80 1017.4
20210723054639 17 0.0 0.0 0.00 0.00 0.00 80 1017.4
20210723054038 17 0.0 0.0 0.00 0.00 0.00 80 1017.4
20210723053538 17 0.0 0.0 0.00 0.00 0.00 80 1017.4
20210723053038 17 0.0 0.0 0.00 0.00 0.00 79 1017.4
20210723052707 17 0.0 0.0 0.00 0.00 0.00 79 1017.4
20210723052037 17 0.0 0.0 0.00 0.00 0.00 79 1017.5
20210723051536 17 248 0.0 4.8 0.00 0.00 0.00 79 1017.5
20210723051036 17 0.0 0.0 0.00 0.00 0.00 79 1017.5
20210723050636 17 0.0 0.0 0.00 0.00 0.00 79 1017.5
20210723050035 17 0.0 0.0 0.00 0.00 0.00 79 1017.6
20210723045535 17 0.0 0.0 0.00 0.00 0.00 79 1017.5
20210723045104 17 0.0 0.0 0.00 0.00 0.00 79 1017.5
20210723044604 17 0.0 0.0 0.00 0.00 0.00 79 1017.6
20210723044034 17 0.0 0.0 0.00 0.00 0.00 79 1017.7
20210723043803 17 0.0 0.0 0.00 0.00 0.00 79 1017.7
20210723043033 17 0.0 0.0 0.00 0.00 0.00 79 1017.7
20210723042532 17 0.0 0.0 0.00 0.00 0.00 79 1017.7
20210723042102 17 0.0 0.0 0.00 0.00 0.00 79 1017.7
20210723041532 17 0.0 0.0 0.00 0.00 0.00 79 1017.7
20210723041031 17 0.0 0.0 0.00 0.00 0.00 80 1017.7
20210723040531 17 0.0 0.0 0.00 0.00 0.00 80 1017.7
20210723040101 17 0.0 0.0 0.00 0.00 0.00 79 1017.7
20210723035530 17 0.0 0.0 0.00 0.00 0.00 80 1017.7
20210723035100 17 0.0 0.0 0.00 0.00 0.00 80 1017.7
20210723034559 17 0.0 0.0 0.00 0.00 0.00 79 1017.7
20210723034029 17 0.0 0.0 0.00 0.00 0.00 79 1017.7
20210723033629 17 0.0 0.0 0.00 0.00 0.00 79 1017.7
20210723033258 17 0.0 0.0 0.00 0.00 0.00 79 1017.7
20210723032558 17 0.0 0.0 0.00 0.00 0.00 79 1017.8
20210723032057 17 0.0 0.0 0.00 0.00 0.00 79 1017.7
20210723031757 17 0.0 0.0 0.00 0.00 0.00 79 1017.7
20210723031027 17 0.0 0.0 0.00 0.00 0.00 79 1017.8
20210723030526 17 0.0 0.0 0.00 0.00 0.00 79 1017.7
20210723030026 17 0.0 0.0 0.00 0.00 0.00 79 1017.7
20210723025956 17 0.0 0.0 0.00 0.00 0.00 79 1017.7
20210723025055 17 0.0 0.0 0.00 0.00 0.00 79 1017.7
20210723024625 17 0.0 0.0 0.00 0.00 0.00 79 1017.7
20210723024455 17 0.0 0.0 0.00 0.00 0.00 79 1017.7
20210723023554 17 0.0 0.0 0.00 0.00 0.00 79 1017.7
20210723023024 17 0.0 0.0 0.00 0.00 0.00 79 1017.8
20210723022553 17 0.0 0.0 0.00 0.00 0.00 79 1017.8
20210723022053 17 0.0 0.0 0.00 0.00 0.00 79 1017.8
20210723021652 17 0.0 0.0 0.00 0.00 0.00 79 1017.8
20210723021252 17 0.0 0.0 0.00 0.00 0.00 79 1017.8
20210723020752 17 0.0 0.0 0.00 0.00 0.00 79 1017.9
20210723020251 17 0.0 0.0 0.00 0.00 0.00 79 1017.9
20210723015551 17 0.0 0.0 0.00 0.00 0.00 79 1017.9
20210723015050 17 0.0 0.0 0.00 0.00 0.00 79 1018.0
20210723014550 17 0.0 0.0 0.00 0.00 0.00 79 1018.0
20210723013549 17 0.0 0.0 0.00 0.00 0.00 79 1018.0
20210723013219 17 0.0 0.0 0.00 0.00 0.00 79 1018.0
20210723012519 17 0.0 0.0 0.00 0.00 0.00 79 1018.1
20210723012218 17 0.0 0.0 0.00 0.00 0.00 80 1018.1
20210723011548 17 0.0 0.0 0.00 0.00 0.00 80 1018.1
20210723011047 17 0.0 0.0 0.00 0.00 0.00 80 1018.0
20210723010747 17 0.0 0.0 0.00 0.00 0.00 80 1018.0
20210723010117 17 0.0 0.0 0.00 0.00 0.00 80 1018.1
20210723005546 17 0.0 0.0 0.00 0.00 0.00 79 1018.1
20210723005146 17 0.0 0.0 0.00 0.00 0.00 79 1018.2
20210723004816 17 0.0 0.0 0.00 0.00 0.00 79 1018.1
20210723004345 17 0.0 0.0 0.00 0.00 0.00 79 1018.1
20210723003745 17 0.0 0.0 0.00 0.00 0.00 79 1018.0
20210723003215 17 0.0 0.0 0.00 0.00 0.00 79 1018.1
20210723002614 17 0.0 0.0 0.00 0.00 0.00 78 1018.0
20210723002314 17 0.0 0.0 0.00 0.00 0.00 78 1018.1
20210723001613 17 0.0 0.0 0.00 0.00 0.00 78 1018.2
20210723001213 17 0.0 0.0 0.00 0.00 0.00 78 1018.0
20210723000913 17 0.0 0.0 0.00 0.00 0.00 78 1018.1
20210723000212 17 0.0 0.0 0.00 0.00 0.00 78 1018.2
20210722235042 17 0.0 0.0 0.00 0.00 0.00 78 1018.2
20210722234611 17 0.0 0.0 0.00 0.00 0.00 78 1018.2
20210722234311 17 0.0 0.0 0.00 0.00 0.00 78 1018.2
20210722233540 17 0.0 0.0 0.00 0.00 0.00 77 1018.2
20210722233040 17 0.0 0.0 0.00 0.00 0.00 77 1018.2
20210722232540 17 0.0 0.0 0.00 0.00 0.00 77 1018.2
20210722232139 17 0.0 0.0 0.00 0.00 0.00 77 1018.2
20210722231609 17 0.0 0.0 0.00 0.00 0.00 77 1018.3
20210722231509 17 0.0 0.0 0.00 0.00 0.00 77 1018.2
20210722230608 17 0.0 0.0 0.00 0.00 0.00 77 1018.2
20210722230108 17 0.0 0.0 0.00 0.00 0.00 77 1018.2
20210722225707 17 0.0 0.0 0.00 0.00 0.00 77 1018.2
20210722225107 17 0.0 0.0 0.00 0.00 0.00 77 1018.2
20210722224737 17 0.0 0.0 0.00 0.00 0.00 76 1018.2
20210722224136 17 0.0 0.0 0.00 0.00 0.00 76 1018.2
20210722223106 17 0.0 0.0 0.00 0.00 0.00 75 1018.2
20210722222535 18 0.0 0.0 0.00 0.00 0.00 75 1018.2
20210722222035 18 0.0 0.0 0.00 0.00 0.00 75 1018.2
20210722221704 18 0.0 0.0 0.00 0.00 0.00 75 1018.1
20210722221034 18 0.0 0.0 0.00 0.00 0.00 74 1018.2
20210722220604 18 0.0 0.0 0.00 0.00 0.00 74 1018.2
20210722220033 18 0.0 0.0 0.00 0.00 0.00 74 1018.2
20210722215703 18 0.0 0.0 0.00 0.00 0.00 74 1018.2
20210722215503 18 0.0 0.0 0.00 0.00 0.00 74 1018.2
20210722214732 18 0.0 0.0 0.00 0.00 0.00 74 1018.2
20210722214032 18 0.0 0.0 0.00 0.00 0.00 74 1018.2
20210722213531 18 0.0 0.0 0.00 0.00 0.00 73 1018.2
20210722213231 18 0.0 0.0 0.00 0.00 0.00 73 1018.2
20210722212530 18 0.0 0.0 0.00 0.00 0.00 73 1018.2
20210722212130 18 0.0 0.0 0.00 0.00 0.00 73 1018.2
20210722211530 18 0.0 0.0 0.00 0.00 0.00 72 1018.3
20210722211059 18 0.0 0.0 0.00 0.00 0.00 72 1018.2
20210722210528 18 0.0 0.0 0.00 0.00 0.00 72 1018.3
20210722210028 18 0.0 0.0 0.00 0.00 0.00 72 1018.2
20210722205628 18 0.0 0.0 0.00 0.00 0.00 71 1018.2
20210722205027 18 0.0 0.0 0.00 0.00 0.00 71 1018.2
20210722204727 18 0.0 0.0 0.00 0.00 0.00 70 1018.2
20210722204056 18 0.0 0.0 0.00 0.00 0.00 70 1018.2
20210722203556 18 0.0 0.0 0.00 0.00 0.00 70 1018.2
20210722203025 18 0.0 0.0 0.00 0.00 0.00 70 1018.2
20210722202625 18 0.0 0.0 0.00 0.00 0.00 70 1018.2
20210722202125 18 0.0 0.0 0.00 0.00 0.00 70 1018.2
20210722201524 18 0.0 0.0 0.00 0.00 0.00 70 1018.2
20210722201124 18 0.0 0.0 0.00 0.00 0.00 70 1018.2
20210722200724 18 0.0 0.0 0.00 0.00 0.00 69 1018.2
20210722200023 18 0.0 0.0 0.00 0.00 0.00 69 1018.2
20210722195553 18 0.0 0.0 0.00 0.00 0.00 69 1018.2
20210722195052 18 0.0 0.0 0.00 0.00 0.00 69 1018.2
20210722194522 18 0.0 0.0 0.00 0.00 0.00 68 1018.2
20210722194222 19 0.0 0.0 0.00 0.00 0.00 68 1018.2
20210722193051 19 0.0 0.0 0.00 0.00 0.00 67 1018.2
20210722192551 19 0.0 0.0 0.00 0.00 0.00 67 1018.2
20210722192020 19 0.0 0.0 0.00 0.00 0.00 67 1018.1
20210722191550 19 0.0 0.0 0.00 0.00 0.00 66 1018.1
20210722191220 19 0.0 0.0 0.00 0.00 0.00 66 1018.1
20210722190519 20 0.0 0.0 0.00 0.00 0.00 65 1018.0
20210722190019 20 0.0 0.0 0.00 0.00 0.00 65 1018.1
20210722185518 20 0.0 0.0 0.00 0.00 0.00 65 1018.0
20210722185218 20 0.0 0.0 0.00 0.00 0.00 65 1018.0
20210722184547 20 0.0 0.0 0.00 0.00 0.00 65 1018.0
20210722184047 20 0.0 0.0 0.00 0.00 0.00 64 1018.0
20210722183547 20 0.0 0.0 0.00 0.00 0.00 64 1018.0
20210722183046 20 0.0 0.0 0.00 0.00 0.00 64 1018.0
20210722182546 20 248 0.0 1.6 0.00 0.00 0.00 63 1018.0
20210722182045 20 278 0.0 4.8 0.00 0.00 0.00 63 1018.0
20210722181545 20 273 1.6 6.4 0.00 0.00 0.00 62 1018.0
20210722181044 20 285 0.0 4.8 0.00 0.00 0.00 62 1018.0
20210722180544 20 315 0.0 1.6 0.00 0.00 0.00 62 1018.0
20210722180044 20 248 0.0 1.6 0.00 0.00 0.00 61 1018.0
20210722175543 21 0.0 0.0 0.00 0.00 0.00 61 1018.0
20210722175043 21 326 0.0 4.8 0.00 0.00 0.00 60 1018.0
20210722174542 21 302 0.0 4.8 0.00 0.00 0.00 60 1018.0
20210722174042 21 318 0.0 8.0 0.00 0.00 0.00 60 1018.0
20210722173542 21 315 0.0 1.6 0.00 0.00 0.00 59 1018.0
20210722173041 21 304 0.0 1.6 0.00 0.00 0.00 59 1018.0
20210722172541 21 293 0.0 1.6 0.00 0.00 0.00 59 1018.1
20210722172040 21 320 0.0 8.0 0.00 0.00 0.00 59 1018.1
20210722171540 21 338 0.0 1.6 0.00 0.00 0.00 59 1018.2
20210722171040 21 284 1.6 11.3 0.00 0.00 0.00 60 1018.2
20210722170539 21 294 1.6 4.8 0.00 0.00 0.00 60 1018.2
20210722170039 21 289 0.0 11.3 0.00 0.00 0.00 61 1018.2
20210722165538 21 276 0.0 8.0 0.00 0.00 0.00 60 1018.2
20210722165038 22 283 3.2 8.0 0.00 0.00 0.00 60 1018.2
20210722164538 22 277 3.2 12.9 0.00 0.00 0.00 60 1018.2
20210722164037 22 258 1.6 6.4 0.00 0.00 0.00 59 1018.2
20210722163537 22 281 1.6 11.3 0.00 0.00 0.00 58 1018.2
20210722163036 22 297 0.0 4.8 0.00 0.00 0.00 57 1018.3
20210722162536 22 295 1.6 6.4 0.00 0.00 0.00 56 1018.3
20210722162036 22 272 1.6 8.0 0.00 0.00 0.00 56 1018.4
20210722161535 23 245 1.6 11.3 0.00 0.00 0.00 56 1018.3